Time,TemperatureF,DewpointF,PressureIn,WindDirection,WindDirectionDegrees,WindSpeedMPH,WindSpeedGustMPH,Humidity,HourlyPrecipIn,Conditions,Clouds,dailyrainin,SolarRadiationWatts/m^2,SoftwareType,DateUTC
2013-05-13 00:21:00,43.0,22.0,-100.00,NNW,348,2.0,5.0,43,0.00,,,0.01,0.000000,,2013-05-13 06:21:00,
2013-05-13 00:32:00,43.0,22.0,-100.00,NNW,348,2.0,5.0,43,0.00,,,0.01,0.000000,,2013-05-13 06:32:00,
2013-05-13 00:42:00,43.0,22.0,-100.00,NNW,348,2.0,5.0,43,0.00,,,0.01,0.000000,,2013-05-13 06:42:00,
2013-05-13 00:52:00,43.0,22.0,-100.00,NNW,348,2.0,5.0,43,0.00,,,0.01,0.000000,,2013-05-13 06:52:00,
2013-05-13 01:11:00,42.0,22.0,-100.00,NE,37,2.0,3.0,44,0.00,,,0.01,0.000000,,2013-05-13 07:11:00,
2013-05-13 01:22:00,42.0,22.0,-100.00,NE,37,2.0,3.0,44,0.00,,,0.01,0.000000,,2013-05-13 07:22:00,
2013-05-13 01:31:00,42.0,22.0,-100.00,NE,37,2.0,3.0,44,0.00,,,0.01,0.000000,,2013-05-13 07:31:00,
2013-05-13 01:41:00,42.0,22.0,-100.00,NE,37,2.0,3.0,44,0.00,,,0.01,0.000000,,2013-05-13 07:41:00,
2013-05-13 01:52:00,42.0,22.0,-100.00,NE,37,2.0,3.0,44,0.00,,,0.01,0.000000,,2013-05-13 07:52:00,
2013-05-13 02:11:00,42.0,23.0,-100.00,ENE,62,3.0,7.0,47,0.00,,,0.01,0.000000,,2013-05-13 08:11:00,
2013-05-13 02:21:00,42.0,23.0,-100.00,ENE,62,3.0,7.0,47,0.00,,,0.01,0.000000,,2013-05-13 08:21:00,
2013-05-13 02:31:00,42.0,23.0,-100.00,ENE,62,3.0,7.0,47,0.00,,,0.01,0.000000,,2013-05-13 08:31:00,
2013-05-13 02:42:00,42.0,23.0,-100.00,ENE,62,3.0,7.0,47,0.00,,,0.01,0.000000,,2013-05-13 08:42:00,
2013-05-13 02:51:00,42.0,23.0,-100.00,ENE,62,3.0,7.0,47,0.00,,,0.01,0.000000,,2013-05-13 08:51:00,
2013-05-13 03:11:00,42.0,23.0,-100.00,NE,35,2.0,5.0,47,0.00,,,0.01,0.000000,,2013-05-13 09:11:00,
2013-05-13 03:21:00,42.0,23.0,-100.00,NE,35,2.0,5.0,47,0.00,,,0.01,0.000000,,2013-05-13 09:21:00,
2013-05-13 03:33:00,42.0,23.0,-100.00,NE,35,2.0,5.0,47,0.00,,,0.01,0.000000,,2013-05-13 09:33:00,
2013-05-13 03:42:00,42.0,23.0,-100.00,NE,35,2.0,5.0,47,0.00,,,0.01,0.000000,,2013-05-13 09:42:00,
2013-05-13 03:52:00,42.0,23.0,-100.00,NE,35,2.0,5.0,47,0.00,,,0.01,0.000000,,2013-05-13 09:52:00,
2013-05-13 04:22:00,41.0,24.0,-100.00,NNE,20,2.0,7.0,51,0.00,,,0.01,0.000000,,2013-05-13 10:22:00,
2013-05-13 04:32:00,41.0,24.0,-100.00,NNE,20,2.0,7.0,51,0.00,,,0.01,0.000000,,2013-05-13 10:32:00,
2013-05-13 04:42:00,41.0,24.0,-100.00,NNE,20,2.0,7.0,51,0.00,,,0.01,0.000000,,2013-05-13 10:42:00,
2013-05-13 04:52:00,41.0,24.0,-100.00,NNE,20,2.0,7.0,51,0.00,,,0.01,0.000000,,2013-05-13 10:52:00,
2013-05-13 05:21:00,40.0,25.0,-100.00,ENE,70,2.0,6.0,55,0.00,,,0.01,0.000000,,2013-05-13 11:21:00,
2013-05-13 05:32:00,40.0,25.0,-100.00,ENE,70,2.0,6.0,55,0.00,,,0.01,0.000000,,2013-05-13 11:32:00,
2013-05-13 05:42:00,40.0,25.0,-100.00,ENE,70,2.0,6.0,55,0.00,,,0.01,0.000000,,2013-05-13 11:42:00,
2013-05-13 05:52:00,40.0,25.0,-100.00,ENE,70,2.0,6.0,55,0.00,,,0.01,0.000000,,2013-05-13 11:52:00,
2013-05-13 06:11:00,42.0,26.0,-100.00,ENE,58,4.0,11.0,53,0.00,,,0.01,0.000000,,2013-05-13 12:11:00,
2013-05-13 06:21:00,42.0,26.0,-100.00,ENE,58,4.0,11.0,53,0.00,,,0.01,0.000000,,2013-05-13 12:21:00,
2013-05-13 06:32:00,42.0,26.0,-100.00,ENE,58,4.0,11.0,53,0.00,,,0.01,0.000000,,2013-05-13 12:32:00,
2013-05-13 06:42:00,42.0,26.0,-100.00,ENE,58,4.0,11.0,53,0.00,,,0.01,0.000000,,2013-05-13 12:42:00,
2013-05-13 06:51:00,42.0,26.0,-100.00,ENE,58,4.0,11.0,53,0.00,,,0.01,0.000000,,2013-05-13 12:51:00,
2013-05-13 07:11:00,45.0,27.0,-100.00,East,92,4.0,10.0,49,0.00,,,0.01,39.000000,,2013-05-13 13:11:00,
2013-05-13 07:21:00,45.0,27.0,-100.00,East,92,4.0,10.0,49,0.00,,,0.01,39.000000,,2013-05-13 13:21:00,
2013-05-13 07:31:00,45.0,27.0,-100.00,East,92,4.0,10.0,49,0.00,,,0.01,39.000000,,2013-05-13 13:31:00,
2013-05-13 07:42:00,45.0,27.0,-100.00,East,92,4.0,10.0,49,0.00,,,0.01,39.000000,,2013-05-13 13:42:00,
2013-05-13 07:52:00,45.0,27.0,-100.00,East,92,4.0,10.0,49,0.00,,,0.01,39.000000,,2013-05-13 13:52:00,
2013-05-13 08:11:00,52.0,30.0,-100.00,ENE,73,3.0,10.0,42,0.00,,,0.00,185.000000,,2013-05-13 14:11:00,
2013-05-13 08:22:00,52.0,30.0,-100.00,ENE,73,3.0,10.0,42,0.00,,,0.00,185.000000,,2013-05-13 14:22:00,
2013-05-13 08:32:00,52.0,30.0,-100.00,ENE,73,3.0,10.0,42,0.00,,,0.00,185.000000,,2013-05-13 14:32:00,
2013-05-13 08:41:00,52.0,30.0,-100.00,ENE,73,3.0,10.0,42,0.00,,,0.00,185.000000,,2013-05-13 14:41:00,
2013-05-13 08:51:00,52.0,30.0,-100.00,ENE,73,3.0,10.0,42,0.00,,,0.00,185.000000,,2013-05-13 14:51:00,
2013-05-13 09:21:00,57.0,27.0,-100.00,South,179,4.0,9.0,32,0.00,,,0.00,398.000000,,2013-05-13 15:21:00,
2013-05-13 09:31:00,57.0,27.0,-100.00,South,179,4.0,9.0,32,0.00,,,0.00,398.000000,,2013-05-13 15:31:00,
2013-05-13 09:42:00,57.0,27.0,-100.00,South,179,4.0,9.0,32,0.00,,,0.00,398.000000,,2013-05-13 15:42:00,
2013-05-13 09:53:00,57.0,27.0,-100.00,South,179,4.0,9.0,32,0.00,,,0.00,398.000000,,2013-05-13 15:53:00,
2013-05-13 10:12:00,62.0,28.0,-100.00,NW,310,4.0,13.0,27,0.00,,,0.00,598.000000,,2013-05-13 16:12:00,
2013-05-13 10:21:00,62.0,28.0,-100.00,NW,310,4.0,13.0,27,0.00,,,0.00,598.000000,,2013-05-13 16:21:00,
2013-05-13 10:33:00,62.0,28.0,-100.00,NW,310,4.0,13.0,27,0.00,,,0.00,598.000000,,2013-05-13 16:33:00,
2013-05-13 10:42:00,62.0,28.0,-100.00,NW,310,4.0,13.0,27,0.00,,,0.00,598.000000,,2013-05-13 16:42:00,
2013-05-13 10:52:00,62.0,28.0,-100.00,NW,310,4.0,13.0,27,0.00,,,0.00,598.000000,,2013-05-13 16:52:00,
2013-05-13 10:54:00,65.0,26.0,-100.00,NNW,344,4.0,17.0,23,0.00,,,0.00,768.000000,,2013-05-13 16:54:00,
2013-05-13 11:12:00,65.0,26.0,-100.00,NNW,344,4.0,17.0,23,0.00,,,0.00,768.000000,,2013-05-13 17:12:00,
2013-05-13 11:21:00,65.0,26.0,-100.00,NNW,344,4.0,17.0,23,0.00,,,0.00,768.000000,,2013-05-13 17:21:00,
2013-05-13 11:32:00,65.0,26.0,-100.00,NNW,344,4.0,17.0,23,0.00,,,0.00,768.000000,,2013-05-13 17:32:00,
2013-05-13 11:42:00,65.0,26.0,-100.00,NNW,344,4.0,17.0,23,0.00,,,0.00,768.000000,,2013-05-13 17:42:00,
2013-05-13 12:23:00,63.0,25.0,-100.00,NW,326,4.0,11.0,23,0.00,,,0.00,876.000000,,2013-05-13 18:23:00,
2013-05-13 12:32:00,63.0,25.0,-100.00,NW,326,4.0,11.0,23,0.00,,,0.00,876.000000,,2013-05-13 18:32:00,
2013-05-13 12:42:00,63.0,25.0,-100.00,NW,326,4.0,11.0,23,0.00,,,0.00,876.000000,,2013-05-13 18:42:00,
2013-05-13 12:51:00,63.0,25.0,-100.00,NW,326,4.0,11.0,23,0.00,,,0.00,876.000000,,2013-05-13 18:51:00,
2013-05-13 13:21:00,65.0,24.0,-100.00,SSW,209,7.0,16.0,21,0.00,,,0.00,1012.000000,,2013-05-13 19:21:00,
2013-05-13 13:32:00,65.0,24.0,-100.00,SSW,209,7.0,16.0,21,0.00,,,0.00,1012.000000,,2013-05-13 19:32:00,
2013-05-13 13:44:00,65.0,24.0,-100.00,SSW,209,7.0,16.0,21,0.00,,,0.00,1012.000000,,2013-05-13 19:44:00,
2013-05-13 13:53:00,65.0,24.0,-100.00,SSW,209,7.0,16.0,21,0.00,,,0.00,1012.000000,,2013-05-13 19:53:00,
2013-05-13 14:23:00,60.0,28.0,-100.00,SSE,150,12.0,18.0,30,0.00,,,0.00,739.000000,,2013-05-13 20:23:00,
2013-05-13 14:33:00,60.0,28.0,-100.00,SSE,150,12.0,18.0,30,0.00,,,0.00,739.000000,,2013-05-13 20:33:00,
2013-05-13 14:44:00,60.0,28.0,-100.00,SSE,150,12.0,18.0,30,0.00,,,0.00,739.000000,,2013-05-13 20:44:00,
2013-05-13 14:53:00,60.0,28.0,-100.00,SSE,150,12.0,18.0,30,0.00,,,0.00,739.000000,,2013-05-13 20:53:00,
2013-05-13 15:23:00,55.0,32.0,-100.00,South,174,8.0,21.0,41,0.00,,,0.00,263.000000,,2013-05-13 21:23:00,
2013-05-13 15:33:00,55.0,32.0,-100.00,South,174,8.0,21.0,41,0.00,,,0.00,263.000000,,2013-05-13 21:33:00,
2013-05-13 15:43:00,55.0,32.0,-100.00,South,174,8.0,21.0,41,0.00,,,0.00,263.000000,,2013-05-13 21:43:00,
2013-05-13 15:53:00,55.0,32.0,-100.00,South,174,8.0,21.0,41,0.00,,,0.00,263.000000,,2013-05-13 21:53:00,
2013-05-13 16:12:00,63.0,28.0,-100.00,South,188,5.0,11.0,26,0.00,,,0.00,519.000000,,2013-05-13 22:12:00,
2013-05-13 16:23:00,63.0,28.0,-100.00,South,188,5.0,11.0,26,0.00,,,0.00,519.000000,,2013-05-13 22:23:00,
2013-05-13 16:32:00,63.0,28.0,-100.00,South,188,5.0,11.0,26,0.00,,,0.00,519.000000,,2013-05-13 22:32:00,
2013-05-13 16:42:00,63.0,28.0,-100.00,South,188,5.0,11.0,26,0.00,,,0.00,519.000000,,2013-05-13 22:42:00,
2013-05-13 16:52:00,63.0,28.0,-100.00,South,188,5.0,11.0,26,0.00,,,0.00,519.000000,,2013-05-13 22:52:00,
2013-05-13 17:23:00,60.0,28.0,-100.00,South,177,12.0,20.0,30,0.00,,,0.00,573.000000,,2013-05-13 23:23:00,
2013-05-13 17:33:00,60.0,28.0,-100.00,South,177,12.0,20.0,30,0.00,,,0.00,573.000000,,2013-05-13 23:33:00,
2013-05-13 17:42:00,60.0,28.0,-100.00,South,177,12.0,20.0,30,0.00,,,0.00,573.000000,,2013-05-13 23:42:00,
2013-05-13 17:53:00,60.0,28.0,-100.00,South,177,12.0,20.0,30,0.00,,,0.00,573.000000,,2013-05-13 23:53:00,
2013-05-13 18:22:00,59.0,31.0,-100.00,South,182,9.0,18.0,34,0.00,,,0.00,478.000000,,2013-05-14 00:22:00,
2013-05-13 18:31:00,59.0,31.0,-100.00,South,182,9.0,18.0,34,0.00,,,0.00,478.000000,,2013-05-14 00:31:00,
2013-05-13 18:41:00,59.0,31.0,-100.00,South,182,9.0,18.0,34,0.00,,,0.00,478.000000,,2013-05-14 00:41:00,
2013-05-13 18:51:00,59.0,31.0,-100.00,South,182,9.0,18.0,34,0.00,,,0.00,478.000000,,2013-05-14 00:51:00,
2013-05-13 19:11:00,54.0,33.0,-100.00,SSW,205,8.0,23.0,44,0.00,,,0.00,260.000000,,2013-05-14 01:11:00,
2013-05-13 19:21:00,54.0,33.0,-100.00,SSW,205,8.0,23.0,44,0.00,,,0.00,260.000000,,2013-05-14 01:21:00,
2013-05-13 19:32:00,54.0,33.0,-100.00,SSW,205,8.0,23.0,44,0.00,,,0.00,260.000000,,2013-05-14 01:32:00,
2013-05-13 19:43:00,54.0,33.0,-100.00,SSW,205,8.0,23.0,44,0.00,,,0.00,260.000000,,2013-05-14 01:43:00,
2013-05-13 19:52:00,54.0,33.0,-100.00,SSW,205,8.0,23.0,44,0.00,,,0.00,260.000000,,2013-05-14 01:52:00,
2013-05-13 20:12:00,50.0,31.0,-100.00,SSE,157,3.0,13.0,47,0.00,,,0.00,60.000000,,2013-05-14 02:12:00,
2013-05-13 20:22:00,50.0,31.0,-100.00,SSE,157,3.0,13.0,47,0.00,,,0.00,60.000000,,2013-05-14 02:22:00,
2013-05-13 20:32:00,50.0,31.0,-100.00,SSE,157,3.0,13.0,47,0.00,,,0.00,60.000000,,2013-05-14 02:32:00,
2013-05-13 20:42:00,50.0,31.0,-100.00,SSE,157,3.0,13.0,47,0.00,,,0.00,60.000000,,2013-05-14 02:42:00,
2013-05-13 20:51:00,50.0,31.0,-100.00,SSE,157,3.0,13.0,47,0.00,,,0.00,60.000000,,2013-05-14 02:51:00,
2013-05-13 21:21:00,47.0,30.0,-100.00,NNE,21,2.0,5.0,52,0.00,,,0.00,2.000000,,2013-05-14 03:21:00,
2013-05-13 21:33:00,47.0,30.0,-100.00,NNE,21,2.0,5.0,52,0.00,,,0.00,2.000000,,2013-05-14 03:33:00,
2013-05-13 21:42:00,47.0,30.0,-100.00,NNE,21,2.0,5.0,52,0.00,,,0.00,2.000000,,2013-05-14 03:42:00,
2013-05-13 21:52:00,47.0,30.0,-100.00,NNE,21,2.0,5.0,52,0.00,,,0.00,2.000000,,2013-05-14 03:52:00,
2013-05-13 22:13:00,46.0,30.0,-100.00,SSE,157,1.0,2.0,53,0.00,,,0.00,0.000000,,2013-05-14 04:13:00,
2013-05-13 22:23:00,46.0,30.0,-100.00,SSE,157,1.0,2.0,53,0.00,,,0.00,0.000000,,2013-05-14 04:23:00,
2013-05-13 22:32:00,46.0,30.0,-100.00,SSE,157,1.0,2.0,53,0.00,,,0.00,0.000000,,2013-05-14 04:32:00,
2013-05-13 22:43:00,46.0,30.0,-100.00,SSE,157,1.0,2.0,53,0.00,,,0.00,0.000000,,2013-05-14 04:43:00,
2013-05-13 22:52:00,46.0,30.0,-100.00,SSE,157,1.0,2.0,53,0.00,,,0.00,0.000000,,2013-05-14 04:52:00,
2013-05-13 23:12:00,45.0,29.0,-100.00,South,189,4.0,5.0,54,0.00,,,0.00,0.000000,,2013-05-14 05:12:00,
2013-05-13 23:22:00,45.0,29.0,-100.00,South,189,4.0,5.0,54,0.00,,,0.00,0.000000,,2013-05-14 05:22:00,
2013-05-13 23:32:00,45.0,29.0,-100.00,South,189,4.0,5.0,54,0.00,,,0.00,0.000000,,2013-05-14 05:32:00,
2013-05-13 23:42:00,45.0,29.0,-100.00,South,189,4.0,5.0,54,0.00,,,0.00,0.000000,,2013-05-14 05:42:00,
2013-05-13 23:52:00,45.0,29.0,-100.00,South,189,4.0,5.0,54,0.00,,,0.00,0.000000,,2013-05-14 05:52:00,